Location: Unspecified
(40.9447°N, 78.9903°W)
Time: 23:41:49
(UTC-04:00)

Hubble Space Telescope - Visible Passes

Search period start: 26 July 2021 00:00
Search period end: 05 August 2021 00:00
Orbit: 535 x 539 km, 28.5° (Epoch: 26 July)

Date Brightness Start Highest point End Pass type
(mag) Time Alt. Az. Time Alt. Az. Time Alt. Az.
26 Jul 2.8 21:06:12 10° SSW 21:08:17 14° S 21:10:24 10° SE visible
27 Jul 3.2 22:36:03 10° SSW 22:36:08 10° SSW 22:36:08 10° SSW visible
28 Jul 3.2 22:25:34 10° SSW 22:25:39 10° SSW 22:25:39 10° SSW visible
